FW2982 Weather Reports


time (UTC)temp
C
wind
direction
speed
KPH
gust
KPH
rain 1hr
cm
rain 24hr
cm
rain mn
cm
humidity
%
barometer
mb
20260510125148 19 168 0.0 0.0 0.00 0.00 0.00 77 1011.0
20260510124648 18 168 0.0 1.6 0.00 0.00 0.00 78 1011.1
20260510124148 18 168 0.0 1.6 0.00 0.00 0.00 79 1011.1
20260510123648 18 168 0.0 1.6 0.00 0.00 0.00 76 1011.3
20260510123147 18 168 0.0 3.2 0.00 0.00 0.00 78 1011.3
20260510122924 17 168 0.0 3.2 0.00 0.00 0.00 80 1011.3
20260510122142 17 168 1.6 3.2 0.00 0.00 0.00 79 1011.3
20260510121638 18 168 0.0 0.0 0.00 0.00 0.00 78 1011.2
20260510121139 17 168 0.0 0.0 0.00 0.00 0.00 82 1011.2
20260510120913 15 168 0.0 0.0 0.00 0.00 0.00 83 1011.1
20260510120135 15 168 0.0 1.6 0.00 0.00 0.00 83 1011.1
20260510115638 15 168 0.0 1.6 0.00 0.00 0.00 86 1011.1
20260510115134 14 168 0.0 1.6 0.00 0.00 0.00 85 1011.0
20260510114635 13 168 0.0 0.0 0.00 0.00 0.00 85 1011.0
20260510114134 13 168 0.0 0.0 0.00 0.00 0.00 87 1011.0
20260510113633 13 168 0.0 0.0 0.00 0.00 0.00 87 1010.9
20260510113132 13 168 0.0 0.0 0.00 0.00 0.00 87 1010.9
20260510112910 13 168 0.0 0.0 0.00 0.00 0.00 89 1010.8
20260510112131 12 168 0.0 0.0 0.00 0.00 0.00 92 1010.6
20260510111632 11 168 0.0 0.0 0.00 0.00 0.00 93 1010.5
20260510111131 10 168 0.0 0.0 0.00 0.00 0.00 94 1010.3
20260510110631 10 168 0.0 0.0 0.00 0.00 0.00 94 1010.2
20260510110132 9 168 0.0 0.0 0.00 0.00 0.00 94 1010.1
20260510105912 9 168 0.0 0.0 0.00 0.00 0.00 94 1010.0
20260510105129 9 168 0.0 0.0 0.00 0.00 0.00 94 1009.9
20260510104632 8 168 0.0 0.0 0.00 0.00 0.00 94 1009.9
20260510104130 8 168 0.0 0.0 0.00 0.00 0.00 94 1009.8
20260510103631 8 168 0.0 0.0 0.00 0.00 0.00 94 1009.8
20260510103413 8 168 0.0 0.0 0.00 0.00 0.00 94 1009.7
20260510102614 9 168 0.0 0.0 0.00 0.00 0.00 94 1009.6
20260510102110 9 168 0.0 0.0 0.00 0.00 0.00 94 1009.5
20260510101609 9 168 0.0 0.0 0.00 0.00 0.00 94 1009.4
20260510101108 9 168 0.0 0.0 0.00 0.00 0.00 94 1009.3
20260510100608 9 168 0.0 0.0 0.00 0.00 0.00 94 1009.2
20260510100109 9 168 0.0 0.0 0.00 0.00 0.00 94 1009.3
20260510095609 9 168 0.0 0.0 0.00 0.00 0.00 94 1009.3
20260510095349 9 168 0.0 0.0 0.00 0.00 0.00 94 1009.3
20260510094847 8 168 0.0 0.0 0.00 0.00 0.00 94 1009.4
20260510094108 9 168 0.0 0.0 0.00 0.00 0.00 94 1009.3
20260510093608 9 168 0.0 0.0 0.00 0.00 0.00 94 1009.3
20260510093108 9 168 0.0 0.0 0.00 0.00 0.00 93 1009.2
20260510092607 9 168 0.0 0.0 0.00 0.00 0.00 93 1009.2
20260510092107 9 168 0.0 0.0 0.00 0.00 0.00 93 1009.2
20260510091607 9 168 0.0 0.0 0.00 0.00 0.00 94 1009.2
20260510091109 9 168 0.0 0.0 0.00 0.00 0.00 94 1009.2
20260510090610 9 168 0.0 0.0 0.00 0.00 0.00 94 1009.2
20260510090107 9 168 0.0 0.0 0.00 0.00 0.00 94 1009.1
20260510085846 9 168 0.0 0.0 0.00 0.00 0.00 94 1009.1
20260510085106 9 168 0.0 0.0 0.00 0.00 0.00 93 1009.2
20260510084604 9 168 0.0 0.0 0.00 0.00 0.00 94 1009.2
20260510084104 9 168 0.0 0.0 0.00 0.00 0.00 93 1009.2
20260510083604 9 168 0.0 0.0 0.00 0.00 0.00 93 1009.2
20260510083105 9 168 0.0 0.0 0.00 0.00 0.00 93 1009.2
20260510082842 9 168 0.0 0.0 0.00 0.00 0.00 93 1009.1
20260510082130 9 168 0.0 0.0 0.00 0.00 0.00 93 1009.1
20260510082120 9 168 0.0 0.0 0.00 0.00 0.00 93 1009.1
20260510081104 10 168 0.0 0.0 0.00 0.00 0.00 93 1008.9
20260510080840 10 168 0.0 0.0 0.00 0.00 0.00 93 1008.8
20260510080104 10 168 0.0 0.0 0.00 0.00 0.00 93 1008.8
20260510075603 10 168 0.0 0.0 0.00 0.00 0.00 93 1008.7
20260510075102 10 168 0.0 0.0 0.00 0.00 0.00 93 1008.6
20260510074543 10 168 0.0 0.0 0.00 0.00 0.00 93 1008.6
20260510074327 10 168 0.0 0.0 0.00 0.00 0.00 93 1008.6
20260510073823 10 168 0.0 0.0 0.00 0.00 0.00 93 1008.4
20260510073040 10 168 0.0 0.0 0.00 0.00 0.00 93 1008.5
20260510072542 10 168 0.0 0.0 0.00 0.00 0.00 93 1008.5
20260510072041 10 168 0.0 0.0 0.00 0.00 0.00 93 1008.5
20260510071539 10 168 0.0 0.0 0.00 0.00 0.00 93 1008.5
20260510071037 10 168 0.0 1.6 0.00 0.00 0.00 93 1008.4
20260510070538 10 168 0.0 1.6 0.00 0.00 0.00 93 1008.4
20260510070033 10 168 0.0 0.0 0.00 0.00 0.00 93 1008.2
20260510065532 10 168 0.0 0.0 0.00 0.00 0.00 93 1008.1
20260510065035 10 168 0.0 0.0 0.00 0.00 0.00 93 1008.1
20260510064532 11 168 0.0 0.0 0.00 0.00 0.00 93 1007.9
20260510064033 11 168 0.0 0.0 0.00 0.00 0.00 93 1008.0
20260510063532 11 168 0.0 0.0 0.00 0.00 0.00 93 1007.9
20260510063033 11 168 0.0 0.0 0.00 0.00 0.00 93 1007.9
20260510062532 11 168 0.0 0.0 0.00 0.00 0.00 93 1007.9
20260510062030 11 168 0.0 0.0 0.00 0.00 0.00 93 1007.8
20260510061532 11 168 0.0 0.0 0.00 0.00 0.00 93 1008.0
20260510061031 11 168 0.0 0.0 0.00 0.00 0.00 93 1008.0
20260510060531 11 168 0.0 0.0 0.00 0.00 0.00 93 1008.0
20260510060031 11 168 0.0 0.0 0.00 0.00 0.00 93 1008.0
20260510055529 11 168 0.0 0.0 0.00 0.00 0.00 92 1007.9
20260510055030 11 168 0.0 0.0 0.00 0.00 0.00 92 1008.0
20260510054528 11 168 0.0 0.0 0.00 0.00 0.00 92 1008.0
20260510054020 11 168 0.0 0.0 0.00 0.00 0.00 92 1007.9
20260510053520 11 168 0.0 0.0 0.00 0.00 0.00 92 1008.0
20260510053019 12 168 0.0 0.0 0.00 0.00 0.00 92 1008.0
20260510052518 12 168 0.0 0.0 0.00 0.00 0.00 92 1008.1
20260510052012 12 168 0.0 0.0 0.00 0.00 0.00 92 1008.2
20260510051748 12 168 0.0 0.0 0.00 0.00 0.00 92 1008.2
20260510051251 12 168 0.0 0.0 0.00 0.00 0.00 91 1008.1
20260510050510 12 168 0.0 0.0 0.00 0.00 0.00 92 1008.1
20260510050007 12 168 0.0 0.0 0.00 0.00 0.00 91 1008.1
20260510045503 12 168 0.0 0.0 0.00 0.00 0.00 91 1008.1
20260510045002 12 168 0.0 1.6 0.00 0.00 0.00 91 1008.1
20260510044505 12 168 0.0 1.6 0.00 0.00 0.00 91 1008.0
20260510044003 12 168 0.0 0.0 0.00 0.00 0.00 91 1008.0
20260510043939 12 168 0.0 0.0 0.00 0.00 0.00 91 1007.8
20260510043842 12 168 0.0 0.0 0.00 0.00 0.00 91 1008.0
20260510043728 12 168 0.0 0.0 0.00 0.00 0.00 91 1008.0
20260510042503 12 168 0.0 0.0 0.00 0.00 0.00 91 1007.9
20260510041503 12 168 0.0 0.0 0.00 0.00 0.00 91 1007.9
20260510041002 13 168 0.0 0.0 0.00 0.00 0.00 91 1007.9
20260510040503 13 168 0.0 0.0 0.00 0.00 0.00 91 1007.9
20260510040002 13 168 0.0 0.0 0.00 0.00 0.00 90 1007.9
20260510035504 13 168 0.0 0.0 0.00 0.00 0.00 90 1007.9
20260510035003 13 168 0.0 0.0 0.00 0.00 0.00 90 1007.8
20260510034501 13 168 0.0 0.0 0.00 0.00 0.00 90 1007.9
20260510034003 13 168 0.0 0.0 0.00 0.00 0.00 90 1007.8
20260510033502 13 168 0.0 1.6 0.00 0.00 0.00 89 1007.8
20260510033335 13 168 0.0 3.2 0.00 0.00 0.00 89 1007.7
20260510033041 13 168 0.0 3.2 0.00 0.00 0.00 89 1007.8
20260510032804 13 168 0.0 3.2 0.00 0.00 0.00 89 1007.8
20260510031502 13 168 0.0 1.6 0.00 0.00 0.00 89 1007.8
20260510031002 14 168 0.0 1.6 0.00 0.00 0.00 88 1007.8
20260510030740 14 168 0.0 0.0 0.00 0.00 0.00 88 1007.8
20260510030026 14 168 0.0 0.0 0.00 0.00 0.00 87 1007.8
20260510030015 14 168 0.0 0.0 0.00 0.00 0.00 87 1007.8
20260510025004 14 168 0.0 0.0 0.00 0.00 0.00 87 1007.8
20260510024502 14 168 0.0 0.0 0.00 0.00 0.00 87 1007.8
20260510024005 15 168 0.0 0.0 0.00 0.00 0.00 86 1007.8
20260510023502 15 168 0.0 0.0 0.00 0.00 0.00 86 1007.6
20260510023002 15 168 0.0 0.0 0.00 0.00 0.00 86 1007.6
20260510022502 15 168 0.0 0.0 0.00 0.00 0.00 85 1007.5
20260510022242 15 168 0.0 0.0 0.00 0.00 0.00 85 1007.5
20260510021500 15 168 0.0 0.0 0.00 0.00 0.00 85 1007.4
20260510020958 15 168 0.0 0.0 0.00 0.00 0.00 85 1007.4
20260510020458 15 168 0.0 0.0 0.00 0.00 0.00 84 1007.3
20260510015957 15 168 0.0 0.0 0.00 0.00 0.00 84 1007.3
20260510015459 15 168 0.0 0.0 0.00 0.00 0.00 84 1007.2
20260510014957 15 168 0.0 0.0 0.00 0.00 0.00 84 1007.2
20260510014458 15 168 0.0 0.0 0.00 0.00 0.00 84 1007.2
20260510014238 15 168 0.0 0.0 0.00 0.00 0.00 83 1007.2
20260510013737 15 168 0.0 0.0 0.00 0.00 0.00 83 1007.1
20260510012957 16 168 0.0 0.0 0.00 0.00 0.00 83 1007.1
20260510012456 16 168 0.0 0.0 0.00 0.00 0.00 82 1006.9
20260510011957 16 168 0.0 0.0 0.00 0.00 0.00 81 1006.8
20260510011456 16 168 0.0 0.0 0.00 0.00 0.00 81 1006.7
20260510010956 16 168 0.0 0.0 0.00 0.00 0.00 80 1006.6
20260510010457 16 168 0.0 0.0 0.00 0.00 0.00 80 1006.5
20260510005956 16 168 0.0 0.0 0.00 0.00 0.00 79 1006.5
20260510005455 17 168 0.0 0.0 0.00 0.00 0.00 78 1006.5
20260510004956 17 168 0.0 0.0 0.00 0.00 0.00 78 1006.4
20260510004455 17 168 0.0 0.0 0.00 0.00 0.00 77 1006.4
20260510003954 17 168 0.0 0.0 0.00 0.00 0.00 76 1006.3
20260510003456 17 168 0.0 0.0 0.00 0.00 0.00 75 1006.3
20260510002958 18 168 0.0 0.0 0.00 0.00 0.00 74 1006.3
20260510002455 18 168 0.0 0.0 0.00 0.00 0.00 73 1006.2
20260510001955 18 168 0.0 0.0 0.00 0.00 0.00 72 1006.2
20260510001455 19 168 0.0 0.0 0.00 0.00 0.00 71 1006.2
20260510000955 19 168 0.0 0.0 0.00 0.00 0.00 70 1006.2
20260510000456 20 168 0.0 0.0 0.00 0.00 0.00 68 1006.2
20260510000241 20 168 0.0 0.0 0.00 0.00 0.00 68 1006.0
20260509235737 20 168 0.0 0.0 0.00 0.00 0.00 67 1006.0
20260509234954 20 168 0.0 0.0 0.00 0.00 0.00 64 1006.1
20260509234455 21 168 0.0 0.0 0.00 0.00 0.00 63 1006.0
20260509233954 21 168 0.0 0.0 0.00 0.00 0.00 62 1005.9
20260509233454 21 168 0.0 1.6 0.00 0.00 0.00 62 1006.0
20260509232955 21 168 0.0 3.2 0.00 0.00 0.00 61 1005.9
20260509232454 21 168 0.0 3.2 0.00 0.00 0.00 61 1005.9
20260509231955 21 169 0.0 1.6 0.00 0.00 0.00 60 1005.9
20260509231733 21 169 0.0 0.0 0.00 0.00 0.00 59 1005.9
20260509230953 21 169 0.0 0.0 0.00 0.00 0.00 59 1005.9
20260509230454 21 169 0.0 1.6 0.00 0.00 0.00 58 1005.8
20260509225954 22 169 0.0 1.6 0.00 0.00 0.00 58 1005.8
20260509225455 22 169 0.0 3.2 0.00 0.00 0.00 57 1005.9
20260509225305 22 162 1.6 4.8 0.00 0.00 0.00 55 1005.8
20260509225011 22 169 0.0 4.8 0.00 0.00 0.00 55 1005.8
20260509223953 22 333 0.0 1.6 0.00 0.00 0.00 54 1005.9
20260509223454 22 333 0.0 3.2 0.00 0.00 0.00 53 1005.9
20260509222954 23 333 0.0 3.2 0.00 0.00 0.00 53 1005.8
20260509222455 23 334 0.0 4.8 0.00 0.00 0.00 51 1005.7
20260509221953 23 333 0.0 4.8 0.00 0.00 0.00 52 1005.8
20260509221452 23 148 0.0 4.8 0.00 0.00 0.00 53 1005.9
20260509220940 23 148 0.0 4.8 0.00 0.00 0.00 53 1005.8
20260509220442 23 100 0.0 3.2 0.00 0.00 0.00 53 1005.9
20260509215940 23 100 0.0 3.2 0.00 0.00 0.00 53 1005.8
20260509215439 23 100 0.0 3.2 0.00 0.00 0.00 52 1005.8
20260509214938 23 100 0.0 3.2 0.00 0.00 0.00 53 1005.7
20260509214436 23 100 0.0 3.2 0.00 0.00 0.00 55 1005.8
20260509214217 23 100 1.6 3.2 0.00 0.00 0.00 55 1005.8
20260509213435 23 97 0.0 3.2 0.00 0.00 0.00 54 1005.8
20260509212936 23 96 0.0 4.8 0.00 0.00 0.00 54 1005.8
20260509212432 23 83 3.2 6.4 0.00 0.00 0.00 54 1005.7
20260509211931 23 90 1.6 6.4 0.00 0.00 0.00 55 1005.7
20260509211431 23 213 1.6 6.4 0.00 0.00 0.00 53 1005.7
20260509210932 23 148 1.6 4.8 0.00 0.00 0.00 53 1005.7
20260509210433 23 262 1.6 4.8 0.00 0.00 0.00 52 1005.7
20260509205932 23 314 0.0 4.8 0.00 0.00 0.00 54 1005.8
20260509205432 23 7 3.2 4.8 0.00 0.00 0.00 52 1005.7
20260509205214 24 307 1.6 4.8 0.00 0.00 0.00 54 1005.8
20260509204430 23 48 1.6 8.0 0.00 0.00 0.00 55 1005.7
20260509203930 23 75 1.6 8.0 0.00 0.00 0.00 54 1005.7
20260509203421 23 275 3.2 8.0 0.00 0.00 0.00 54 1005.8
20260509202920 23 288 3.2 8.0 0.00 0.00 0.00 55 1005.6
20260509202420 23 204 3.2 8.0 0.00 0.00 0.00 53 1005.6
20260509201919 23 224 1.6 6.4 0.00 0.00 0.00 55 1005.6
20260509201419 23 238 1.6 11.3 0.00 0.00 0.00 57 1005.7
20260509200906 23 92 4.8 11.3 0.00 0.00 0.00 55 1005.7
20260509200407 23 44 3.2 9.7 0.00 0.00 0.00 55 1005.8
20260509195930 23 221 1.6 9.7 0.00 0.00 0.00 55 1006.1
20260509195921 23 58 3.2 9.7 0.00 0.00 0.00 56 1005.8
20260509194905 23 227 3.2 11.3 0.00 0.00 0.00 54 1006.1
20260509194404 23 286 1.6 11.3 0.00 0.00 0.00 55 1006.2
20260509193905 23 216 0.0 16.1 0.00 0.00 0.00 54 1006.3
20260509193406 22 127 3.2 16.1 0.00 0.00 0.00 55 1006.2
20260509192903 22 251 1.6 9.7 0.00 0.00 0.00 56 1006.4
20260509192402 22 334 3.2 9.7 0.00 0.00 0.00 55 1006.5
20260509191902 22 96 3.2 6.4 0.00 0.00 0.00 56 1006.7
20260509191403 22 266 1.6 6.4 0.00 0.00 0.00 58 1006.7
20260509190903 22 247 3.2 6.4 0.00 0.00 0.00 58 1006.8
20260509190401 22 303 1.6 3.2 0.00 0.00 0.00 58 1006.8
20260509185857 22 240 1.6 4.8 0.00 0.00 0.00 59 1006.8
20260509185356 21 99 1.6 6.4 0.00 0.00 0.00 59 1006.7
20260509184857 22 188 3.2 6.4 0.00 0.00 0.00 59 1006.6
20260509184354 22 250 1.6 4.8 0.00 0.00 0.00 59 1006.7
20260509184137 21 285 0.0 6.4 0.00 0.00 0.00 61 1006.8
20260509183355 21 285 0.0 6.4 0.00 0.00 0.00 60 1006.7
20260509182852 21 168 1.6 4.8 0.00 0.00 0.00 59 1007.0
20260509182352 21 296 3.2 4.8 0.00 0.00 0.00 64 1007.0
20260509182132 21 264 0.0 1.6 0.00 0.00 0.00 64 1007.0
20260509181352 21 264 0.0 3.2 0.00 0.00 0.00 62 1007.1
20260509180850 21 264 0.0 3.2 0.00 0.00 0.00 61 1007.2
20260509180350 21 255 0.0 3.2 0.00 0.00 0.00 59 1007.4
20260509180130 21 254 0.0 3.2 0.00 0.00 0.00 61 1007.6
20260509175346 21 257 0.0 3.2 0.00 0.00 0.00 62 1007.7
20260509174847 21 254 0.0 3.2 0.00 0.00 0.00 60 1007.9
20260509174347 21 254 1.6 3.2 0.00 0.00 0.00 61 1007.9
20260509173846 21 345 0.0 3.2 0.00 0.00 0.00 59 1007.9
20260509173348 22 276 0.0 3.2 0.00 0.00 0.00 58 1007.8
20260509173126 21 275 0.0 4.8 0.00 0.00 0.00 61 1007.8
20260509172347 22 271 1.6 8.0 0.00 0.00 0.00 57 1007.8
20260509172154 23 241 1.6 6.4 0.00 0.00 0.00 58 1007.8
20260509172149 22 324 1.6 8.0 0.00 0.00 0.00 57 1007.8
20260509170847 23 158 1.6 8.0 0.00 0.00 0.00 57 1007.8
20260509170346 22 326 1.6 8.0 0.00 0.00 0.00 58 1007.8
20260509165846 21 257 1.6 9.7 0.00 0.00 0.00 58 1007.9
20260509165346 21 351 3.2 9.7 0.00 0.00 0.00 58 1008.0
20260509164846 21 75 4.8 8.0 0.00 0.00 0.00 59 1008.1
20260509164345 21 265 1.6 8.0 0.00 0.00 0.00 60 1008.1
20260509163846 20 130 1.6 4.8 0.00 0.00 0.00 61 1008.1
20260509163627 20 66 0.0 8.0 0.00 0.00 0.00 61 1008.2
20260509162846 20 226 3.2 8.0 0.00 0.00 0.00 60 1008.2
20260509162346 21 182 3.2 14.5 0.00 0.00 0.00 59 1008.2
20260509161846 21 233 1.6 14.5 0.00 0.00 0.00 60 1008.1
20260509161345 21 310 0.0 6.4 0.00 0.00 0.00 58 1008.1
20260509160845 21 0 1.6 6.4 0.00 0.00 0.00 57 1008.1
20260509160345 22 238 1.6 8.0 0.00 0.00 0.00 58 1008.1
20260509155843 22 268 3.2 8.0 0.00 0.00 0.00 58 1008.1
20260509155339 21 80 1.6 6.4 0.00 0.00 0.00 59 1008.1
20260509154837 21 217 1.6 6.4 0.00 0.00 0.00 56 1008.2
20260509154338 21 279 3.2 6.4 0.00 0.00 0.00 56 1008.4
20260509153837 21 354 1.6 6.4 0.00 0.00 0.00 56 1008.3
20260509153617 22 279 3.2 6.4 0.00 0.00 0.00 57 1008.3
20260509152833 22 200 3.2 8.0 0.00 0.00 0.00 58 1008.3
20260509152331 21 92 3.2 8.0 0.00 0.00 0.00 57 1008.4
20260509151830 23 258 3.2 6.4 0.00 0.00 0.00 54 1008.3
20260509151331 22 265 1.6 9.7 0.00 0.00 0.00 55 1008.4
20260509150833 22 213 3.2 9.7 0.00 0.00 0.00 57 1008.4
20260509150332 21 278 1.6 6.4 0.00 0.00 0.00 57 1008.5
20260509145830 21 307 1.6 6.4 0.00 0.00 0.00 55 1008.6
20260509145333 21 140 3.2 4.8 0.00 0.00 0.00 56 1008.5
20260509144332 19 144 3.2 9.7 0.00 0.00 0.00 60 1008.8
20260509143831 20 240 0.0 4.8 0.00 0.00 0.00 60 1008.8
20260509143611 19 255 1.6 4.8 0.00 0.00 0.00 61 1008.8
20260509142831 18 37 1.6 3.2 0.00 0.00 0.00 64 1008.9
20260509142333 18 169 1.6 11.3 0.00 0.00 0.00 64 1009.0
20260509141833 17 121 1.6 11.3 0.00 0.00 0.00 63 1009.0
20260509141331 17 100 1.6 4.8 0.00 0.00 0.00 64 1009.1
20260509140832 17 23 0.0 3.2 0.00 0.00 0.00 67 1009.1
20260509140333 16 23 1.6 3.2 0.00 0.00 0.00 65 1009.1
20260509135831 16 41 1.6 4.8 0.00 0.00 0.00 66 1009.0
20260509135333 15 186 1.6 4.8 0.00 0.00 0.00 66 1008.9
20260509135113 15 209 0.0 4.8 0.00 0.00 0.00 68 1009.0
20260509134612 15 210 0.0 4.8 0.00 0.00 0.00 67 1009.1
20260509133834 15 298 1.6 4.8 0.00 0.00 0.00 69 1009.2
20260509133332 15 289 0.0 6.4 0.00 0.00 0.00 68 1009.1
20260509132831 15 289 0.0 6.4 0.00 0.00 0.00 67 1009.1
20260509132332 15 292 1.6 6.4 0.00 0.00 0.00 68 1009.2
20260509131832 15 252 0.0 3.2 0.00 0.00 0.00 68 1009.1
20260509131333 15 306 0.0 3.2 0.00 0.00 0.00 69 1009.2
20260509130833 15 306 0.0 4.8 0.00 0.00 0.00 68 1009.2
20260509130611 15 306 1.6 4.8 0.00 0.00 0.00 66 1009.2
20260509125831 15 298 1.6 4.8 0.00 0.00 0.00 67 1009.1